Skip Navigation Links
NOAA logo - Click to go to the NOAA homepage
NOAA's National Weather Service
Alaska Aviation Weather Unit
  NWS logo - Click to go to the NWS homepage
Left Navbar Graphic     17 AKDT = 01 GMT

   
NOAA is celebrating 200 years of science, service, and stewardship. Visit the NOAA 200th celebration Web site to learn more.
USA.gov is the U.S. Government's official Web portal to all Federal, state and local government Web resources and services.
Facebook
NWS on Facebook

Important Change Regarding the AAWU Web Presence

 

Over the last several months, the AAWU has been working to navigate its webpages to a nationally supported server. Security, as well as other needs, have necessitated the change.  In the process, we have made an effort to enhance the functionality of our website, as well as some of our products. As of June 27, 2017, aawu.arh.noaa.gov will be discontinued. The new AAWU web address is weather.gov/aawu. It is now live and will run in-parallel with the old site until it is discontinued. Please send any feedback or questions regarding the new webpages to nws.ar.aawu.webauthors@noaa.gov.  Thank you for your patience during this time of transition.
AAWU Home :: Display TAF Add Bookmark
TAF PADL 252331Z 2600/2624 18011G20KT P6SM BKN035
     FM260600 13010KT P6SM -SHRA BKN025
     FM260900 11011KT P6SM -RA BKN004 OVC020
     FM262100 10009KT P6SM VCSH OVC025=
METAR PADL 251956Z 13004KT 10SM BKN030 BKN150 14/07 A2999=

METAR PADL 252056Z 16010G15KT 10SM BKN035 BKN120 16/08 A2997=

METAR PADL 252156Z 19013G20KT 10SM BKN035 BKN150 13/08 A2996=

METAR PADL 252256Z 18015KT 10SM SCT035 BKN150 14/07 A2995=

METAR PADL 252356Z 18015G20KT 10SM SCT035 BKN150 14/07 A2994=

METAR PADL 260056Z 19009KT 10SM BKN040 OVC150 13/07 A2993=


NOAA's National Weather Service
Alaska Aviation Weather Unit
6930 Sand Lake Road
Anchorage, AK 99502-1845
Disclaimer
Credits
Glossary
Privacy Policy
About Us
Career Opportunities
Contact AAWU Internet Services Site last modified: April, 17th 2012